SL-16 DEB

Satellite information

Favourite Embed

Satellite Type and Status

DEBRISIN ORBIT

Key statistics

Satellite SL-16 DEB at a glance.

Uptime

10644

Days in orbit

Revolutions

≈ 13.7

Per day

Orbit

LEO

Low Earth Orbit

Inclination

71.0

Latest

Satellite identification and parameters

Extended collection of information and parameters for SL-16 DEB.

Object identification

Identified? True

Debris? True

Object name: SL-16 DEB

International designator: 1996-051E

Object number (NORAD): 24301

Object ID (CCSDS): 24301

Country: COMMONWEALTH OF INDEPENDENT STATES (CIS)

Current information (Y/N): Y

RCS size: SMALL

Orbital parameters

Period: 104.915 minutes

Inclination: 70.9919 deg

SMA: 7368.605 km

Apoapsis: 1142.081 km

Periapsis: 838.859 km

RAAN: 249.3888 deg

Eccentricy: 0.02057524

Argument of periapsis: 149.2366 deg

Mean anomaly: 270.8607 deg

Mean motion: 13.72539532 rev/day

Mean motion (dot): 0.00000101 rev/day2

B* drag term: 0.00013386712 1/REarth

Two-line elements (TLE)

Creation date: Oct. 26, 2025, 2:54 a.m.

Reference frame: TEME

Reference center: EARTH

Epoch: Oct. 25, 2025, 10:15 p.m. UTC

TLE line 0: 0 SL-16 DEB

TLE line 1: 1 24301U 96051E 25298.92712123 .00000101 00000-0 13387-3 0 9991

TLE line 2: 2 24301 70.9919 249.3888 0205752 149.2366 270.8607 13.72539532458828

Live tracking on map

Real-time ground track for satellite SL-16 DEB.

In-orbit conjunctions

A list of the most updated potential collisions computed for object SL-16 DEB.

Target Orbit TCA Probability of collision Miss distance Type
FENGYUN 1C DEB SSO 2024-10-01 15:27:44 0.0001283309 358.0 (m) DEBRIS
METEOR 2-19 LEO 2024-08-30 14:21:59 0.0003004673 275.0 (m) PAYLOAD

Associated space launch

Second generation ELING satellite

SL-16 DEB was lifted into orbit during the mission ‘Zenit-2 | Tselina-2 18’, on board a Zenit-2 space rocket.

The launch took place on Sept. 4, 1996, 9:01 a.m. from 45/1.

For more information about the launch, click the button.

Launch to space Zenit-2 | Tselina-2 18
Zenit-2 | Tselina-2 18

Agency: N/A

Status: Launch Successful

Launch date: Sept. 4, 1996, 9:01 a.m. UTC

Rocket: Zenit-2

Launch pad: 45/1

Location: Baikonur Cosmodrome, Republic of Kazakhstan

...

Latest news about this satellite

There are no fresh news available about this satellite. Check back as we update our databases every day.


Newsletter sign-up

Weekly statistics, charts and insights to help you stay on top of the space industry.